Location: Bambrugge
(50.9212°N, 3.9299°E)
Time: 06:14:01
(UTC+00:00)

SL-16 R/B - Pass Details

Date: 08 August 2024
Orbit: 842 x 845 km, 71.0° (Epoch: 16 September)

Event Time Altitude Azimuth Distance (km) Brightness Sun altitude
Exits shadow 23:29:39 31° 114° (ESE) 1,454 3.1 -23.2°
Maximum altitude 23:30:04 31° 105° (ESE) 1,444 3.2 -23.2°
Drops below altitude 10° 23:34:58 10° 46° (NE) 2,474 5.1 -23.2°
Sets 23:37:40 0° 36° (NE) 3,414 6.1 -23.3°
